This is the latest recevied weather packets stored in our database for station/object PY4EI-13. If no packets are shown the sender has not sent any weather packets the latest 10 day(s).
| Time | Temp. | Humidity | Pressure | Rain* | Wind** | Luminosity | Snow |
|---|---|---|---|---|---|---|---|
| 1788089403 | 23.89° C | 55% | 1016 hPa | 0 mm | - | - | - |
| 1788088503 | 23.33° C | 56% | 1016 hPa | 0 mm | - | - | - |
| 1788087604 | 23.33° C | 56% | 1015.9 hPa | 0 mm | - | - | - |
| 1788086704 | 23.33° C | 57% | 1015.9 hPa | 0 mm | - | - | - |
| 1788085803 | 23.33° C | 57% | 1015.9 hPa | 0 mm | - | - | - |
| 1788084904 | 22.78° C | 57% | 1015.9 hPa | 0 mm | - | - | - |
| 1788084004 | 22.78° C | 58% | 1015.8 hPa | 0 mm | - | - | - |
| 1788083104 | 22.78° C | 58% | 1015.6 hPa | 0 mm | - | - | - |
| 1788082204 | 22.78° C | 58% | 1015.3 hPa | 0 mm | - | - | - |
| 1788081303 | 23.33° C | 58% | 1015.2 hPa | 0 mm | - | - | - |
| 1788080404 | 23.33° C | 57% | 1015 hPa | 0 mm | - | - | - |
| 1788079504 | 23.33° C | 58% | 1014.8 hPa | 0 mm | - | - | - |
| 1788078604 | 23.33° C | 57% | 1014.6 hPa | 0 mm | - | - | - |
| 1788077704 | 23.33° C | 57% | 1014.4 hPa | 0 mm | - | - | - |
| 1788076804 | 23.33° C | 57% | 1014.2 hPa | 0 mm | - | - | - |
| 1788075904 | 23.33° C | 57% | 1013.9 hPa | 0 mm | - | - | - |
| 1788075003 | 23.33° C | 57% | 1013.7 hPa | 0 mm | - | - | - |
| 1788074104 | 23.89° C | 57% | 1013.5 hPa | 0 mm | - | - | - |
| 1788073203 | 23.89° C | 57% | 1013.3 hPa | 0 mm | - | - | - |
| 1788072304 | 23.89° C | 57% | 1013.4 hPa | 0 mm | - | - | - |
| 1788071403 | 23.89° C | 57% | 1013.4 hPa | 0 mm | - | - | - |
| 1788070503 | 23.89° C | 57% | 1013.4 hPa | 0 mm | - | - | - |
| 1788069604 | 23.89° C | 57% | 1013.5 hPa | 0 mm | - | - | - |
| 1788068704 | 24.44° C | 57% | 1013.4 hPa | 0 mm | - | - | - |
| 1788067804 | 24.44° C | 56% | 1013.5 hPa | 0 mm | - | - | - |
* Rain since midnight (hover to see other rain measurements)
** Current wind speed in m/s (hover to see current wind gust speed)